Regional Weather Roundup
Issued by NWS

Home | Current Version | Previous Version | Graphics & Text | Print | Product List | Glossary On
Versions: 1 2 3 4 5 6 7 8 9 10 11 12 13 14 15 16 17 18 19 20 21 22 23 24 25 26 27 28 29 30 31 32 33 34 35 36 37 38 39 40 41 42 43 44 45 46 47 48 49 50
000
ASUS43 KDMX 232306
RWRIA

WEATHER ROUNDUP FOR IOWA
NATIONAL WEATHER SERVICE DES MOINES IA
600 PM CDT FRI JUN 23 2017

NOTE: "FAIR" INDICATES FEW OR NO CLOUDS BELOW 12,000 FEET WITH NO
SIGNIFICANT WEATHER AND/OR OBSTRUCTIONS TO VISIBILITY.

* - THESE STATIONS ARE NOT NWS STATIONS...THUS NOT UNDER NWS
QUALITY CONTROL.  THEY ALSO DO NOT REPORT WEATHER SUCH
AS PRECIPITATION OR FOG.

IAZ001>003-012>014-020>022-031>034-043>046-240000-
   NORTHWEST IOWA

CITY           SKY/WX    TMP DP  RH WIND       PRES   REMARKS
CARROLL *      MOSUNNY   72  50  46 NW21G28   29.95F
CHEROKEE *     PTSUNNY   67  50  54 NW17G24   29.98R
DENISON *      MOSUNNY   72  48  43 NW16G24   29.98F
LE MARS *      PTSUNNY   70  48  46 NW17G25   30.00S
ORANGE CITY *  PTSUNNY   66  50  55 NW15G23   29.99S
SHELDON *      PTSUNNY   66  48  52 NW15G25   29.97R
SIOUX CITY     CLOUDY    70  49  47 NW20G25   29.98S
SPENCER        CLOUDY    70  49  47 NW20G25   29.96R
STORM LAKE *   PTSUNNY   70  50  49 NW17G23   29.97S
$$

IAZ055>058-069>071-079>083-090>094-240000-
   SOUTHWEST IOWA

CITY           SKY/WX    TMP DP  RH WIND       PRES   REMARKS
ATLANTIC *     MOSUNNY   72  50  46 N17G24    29.97S
AUDUBON *      PTSUNNY   72  50  46 NW15G25   29.98R
CLARINDA *     SUNNY     75  52  43 NW16      30.00S
COUNCIL BLFS * PTSUNNY   73  50  43 NW15G21   29.99R
CRESTON *      PTSUNNY   72  52  49 NW13G21   29.98S
HARLAN  *      MOSUNNY   72  50  46 NW18      30.01R
LAMONI         PTSUNNY   75  54  47 NW17G25   29.95S
RED OAK *      PTSUNNY   72  54  53 NW10G17   29.98S
SHENANDOAH *   SUNNY     72  52  49 NW8G17    29.99S
$$

IAZ047>049-059>061-072>074-084-240000-
   CENTRAL IOWA

CITY           SKY/WX    TMP DP  RH WIND       PRES   REMARKS
AMES           MOSUNNY   72  53  51 NW16G24   29.92R
ANKENY *       MOSUNNY   73  52  46 NW17G24   29.92S
BOONE *        PTSUNNY   72  52  49 NW20G25   29.92S
CHARITON *     MOSUNNY   75  52  43 NW20G26   29.92S
DES MOINES     PTSUNNY   74  50  42 NW21G28   29.91R
GRINNELL*      MOSUNNY   72  53  50 NW16G25   29.91R
KNOXVILLE *    PTSUNNY   72  54  53 NW16G22   29.90S
MARSHALLTOWN   PTSUNNY   70  53  54 NW20      29.89R
NEWTON *       PTSUNNY   72  52  49 NW16G25   29.91R
PELLA *        MOSUNNY   73  52  48 NW10G17   29.92R
PERRY *        PTSUNNY   73  49  43 NW18      29.94S
$$

IAZ004>006-015-016-023>025-035-036-240000-
   NORTH CENTRAL IOWA

CITY           SKY/WX    TMP DP  RH WIND       PRES   REMARKS
ALGONA *       PTSUNNY   70  50  49 NW20G26   29.93S
CLARION *        N/A     70  54  56 NW18      29.91F
ESTHERVILLE    PTSUNNY   67  52  58 NW20G25   29.94R
FORT DODGE *   MOSUNNY   70  52  52 NW14G21   29.95S
MASON CITY     PTSUNNY   68  53  58 NW17G23   29.91R
FOREST CITY *  PTSUNNY   70  43  37 NW20G26   29.90S
WEBSTER CITY * PTSUNNY   72  54  53 NW17G28   29.91S
IOWA FALLS *   CLOUDY    72  55  55 W21       29.92R
$$

IAZ007>011-017>019-026>030-037>042-050>054-066-240000-
   NORTHEAST IOWA

CITY           SKY/WX    TMP DP  RH WIND       PRES   REMARKS
CEDAR RAPIDS   MOSUNNY   70  56  61 NW17      29.85S
CHARLES CITY * MOSUNNY   68  52  56 NW21G28   29.88R
CLINTON *      MOSUNNY   74  56  53 NW20      29.81R
DECORAH *      CLOUDY    68  55  64 NW12G23   29.83R
DUBUQUE        CLOUDY    71  55  56 NW13      29.82F
MONTICELLO *   SUNNY     70  55  60 NW14G23   29.83S
OELWEIN *      MOSUNNY   70  57  64 NW18G26   29.87R
WATERLOO       PTSUNNY   72  54  53 NW20      29.86R
$$

IAZ064-065-067-068-078-240000-
   EAST CENTRAL IOWA

CITY           SKY/WX    TMP DP  RH WIND       PRES   REMARKS
DAVENPORT      SUNNY     74  55  51 NW22G30   29.82S
IOWA CITY      SUNNY     76  54  46 NW15G22   29.86S
MT. PLEASANT * SUNNY     75  50  40 NW14G25   29.87R
MUSCATINE *    MOSUNNY   77  54  44 NW13G22   29.84S
QUAD CITIES    SUNNY     76  52  43 NW21G30   29.81R
$$

IAZ062-063-075>077-085>089-095>099-240000-
   SOUTHEAST IOWA

CITY           SKY/WX    TMP DP  RH WIND       PRES   REMARKS
BURLINGTON     MOSUNNY   77  55  46 NW16G24   29.84R
FAIRFIELD *    MOSUNNY   75  52  43 NW16      29.87S
FORT MADISON * MOSUNNY   79  55  44 NW16G25   29.86R
KEOKUK *       SUNNY     77  54  44 NW15G24   29.85R
OSKALOOSA *      N/A     73  52  47 NW14G23   29.90S
CENTERVILLE *    N/A     73  55  53 NW13      29.93F
OTTUMWA        SUNNY     76  52  43 NW15      29.89S
WASHINGTON *   MOSUNNY   73  54  49 NW15      29.87F
$$

ABBREVIATIONS USED IN REMARKS
   TC - TEMPERATURES IN CELSIUS
  WCI - WIND CHILL INDEX
   HX - HEAT INDEX
  VSB - VISIBILITY
$$




USA.gov is the U.S. government's official web portal to all federal, state and local government web resources and services.